Tracking 30009 objects as of 8-Dec-2024
HD Live streaming from Space Station
objects crossing your sky now

STARLINK-6334

Track STARLINK-6334 now!
10-day predictions
STARLINK-6334 is classified as:


NORAD ID: 57238
Int'l Code: 2023-094W
Perigee: 565.2 km
Apogee: 567.2 km
Inclination: 43.0 °
Period: 95.8 minutes
Semi major axis: 6937 km
RCS: Unknown
Launch date: July 7, 2023
Source: United States (US)
Launch site: AIR FORCE WESTERN TEST RANGE (AFWTR)
Your satellite tracking list
Your tracking list is empty




NASA's NSSDC Master Catalog

Two Line Element Set (TLE):
1 57238U 23094W   24342.71339184  .00000658  00000-0  63766-4 0  9995
2 57238  43.0054 340.8552 0001438 263.9837  96.0842 15.02538277 78525
Source of the keplerian elements: AFSPC